Location: ?
(35.3544°N, 139.4507°E)
Time: 05:51:20
(UTC+00:00)

Cosmos 2278 Rocket - Pass Details

Date: 03 August 2024
Orbit: 841 x 844 km, 71.0° (Epoch: 10 September)

Event Time Altitude Azimuth Distance (km) Brightness Sun altitude
Rises 18:55:08 0° 340° (NNW) 3,402 5.5 -11.4°
Reaches altitude 10° 18:57:36 10° 343° (NNW) 2,464 4.8 -11.0°
Maximum altitude 19:03:15 73° 68° (ENE) 880 2.5 -10.0°
Drops below altitude 10° 19:08:52 10° 153° (SSE) 2,452 4.6 -9.0°
Sets 19:11:19 0° 155° (SSE) 3,384 5.3 -8.6°
